DateTimeUTC,F1_A11,F1_S11,BsB_S11,BsG_S11,BsR_S11,BbsB_S11,BbsG_S11,BbsR_S11,BaB_A11,BaG_A11,BaR_A11,Tu_S11,T_S11,Uu_S11,U_S11,P_S11,T1_A11
2021-04-28T03:00:00Z,00040200,20000000,,,,,,,0000.19,-000.23,0000.43,17.9,25.1,01.6,01.0,0682.9,31.1
2021-04-28T03:01:00Z,00040200,20000000,,,,,,,0000.08,0000.24,0000.06,17.9,25.1,01.6,01.0,0682.9,31.1
2021-04-28T03:02:00Z,00040200,20000000,,,,,,,-000.15,0000.01,-000.13,17.9,25.2,01.6,01.0,0682.9,31.1
2021-04-28T03:03:00Z,00040200,60000000,,,,,,,0000.69,0000.32,0000.35,17.9,25.2,01.6,01.0,0682.9,31.1
2021-04-28T03:04:00Z,00040200,41000000,0001.40,0000.86,0000.71,-000.12,0000.26,0000.17,0000.47,0000.33,0000.41,18.0,25.0,01.7,01.1,0683.8,31.1
2021-04-28T03:05:00Z,00040200,01000000,0001.27,0000.90,0000.38,-000.42,0000.28,0000.08,0000.49,0000.93,0000.26,18.0,24.9,01.7,01.1,0683.9,31.1
2021-04-28T03:06:00Z,00040200,01000000,0001.67,0001.04,0000.72,0000.46,0000.35,0000.15,0000.56,0000.13,0000.56,18.1,24.9,01.7,01.1,0683.9,31.1
2021-04-28T03:07:00Z,00040200,01000000,0001.58,0001.19,0000.53,0000.13,0000.12,0000.02,0000.20,0000.33,0000.07,18.1,24.9,01.7,01.1,0683.9,31.1
2021-04-28T03:08:00Z,00040200,01000000,0001.49,0001.39,0000.42,0000.29,0000.33,0000.15,0000.47,0000.44,0000.44,18.1,24.9,01.7,01.1,0683.8,31.1
2021-04-28T03:09:00Z,00040200,01000000,0000.96,0001.03,0000.28,0000.06,0000.47,0000.07,0000.64,0000.64,0000.20,18.1,24.9,01.8,01.2,0683.8,31.1
2021-04-28T03:10:00Z,00040200,01000000,0001.63,0001.10,0000.27,-000.10,-000.01,-000.06,0000.64,0000.58,0000.29,18.1,24.9,01.8,01.2,0683.8,31.1
2021-04-28T03:11:00Z,00040200,01000000,0001.07,0000.89,0000.57,-000.16,0000.27,0000.30,0000.43,0000.33,0000.37,18.1,24.9,01.8,01.2,0683.8,31.1
2021-04-28T03:12:00Z,00040200,01000000,0001.55,0000.98,0000.46,0000.07,0000.18,0000.09,0000.10,0000.27,0000.34,18.1,24.9,01.9,01.2,0683.8,31.1
2021-04-28T03:13:00Z,00040200,00000000,0001.64,0001.05,0000.49,-000.33,0000.24,0000.14,0000.54,0000.15,0000.26,18.1,24.9,01.9,01.2,0683.8,31.1
2021-04-28T03:14:00Z,00040200,01000000,0001.68,0000.73,0000.50,-000.33,0000.32,0000.12,0000.21,0000.37,0000.23,18.1,24.8,01.9,01.2,0683.8,31.1
2021-04-28T03:15:00Z,00040200,01000000,0001.42,0000.82,0000.40,0000.09,0000.12,0000.22,0000.64,0000.73,0000.24,18.1,24.9,01.8,01.2,0683.8,31.1
2021-04-28T03:16:00Z,00040200,01000000,0001.25,0001.00,0000.45,0000.28,0000.42,0000.05,0000.22,0000.19,0000.00,18.1,24.9,01.9,01.2,0683.8,31.1
2021-04-28T03:17:00Z,00040200,01000000,0001.50,0000.86,0000.17,0000.33,0000.27,-000.13,0000.62,0000.50,0000.65,18.1,24.8,01.9,01.3,0683.8,31.1
2021-04-28T03:18:00Z,00040200,01000000,0001.72,0000.68,0000.55,0000.42,0000.03,0000.13,0000.36,0000.01,0000.04,18.1,24.9,01.8,01.2,0683.7,31.1
2021-04-28T03:19:00Z,00040200,01000000,0000.90,0000.83,0000.51,-000.06,0000.30,0000.01,0000.37,0000.43,0000.31,18.1,24.8,01.8,01.2,0683.7,31.1
2021-04-28T03:20:00Z,00040200,00000000,0000.88,0000.74,0000.53,-000.04,0000.17,0000.20,0000.28,0000.37,0000.01,18.1,24.9,01.9,01.3,0683.7,31.2
2021-04-28T03:21:00Z,00040200,01000000,0002.05,0000.71,0000.21,-000.43,0000.23,-000.00,0000.30,0000.46,0000.38,18.1,24.8,01.8,01.2,0683.7,31.1
2021-04-28T03:22:00Z,00040200,01000000,0001.73,0000.97,0000.24,0000.37,0000.23,0000.11,0000.24,0000.03,0000.42,18.1,24.8,01.7,01.1,0683.7,31.1
2021-04-28T03:23:00Z,00040200,01000000,0001.16,0000.75,0000.73,0000.08,0000.16,0000.10,0000.74,0000.58,0000.20,18.1,24.8,01.7,01.1,0683.7,31.1
2021-04-28T03:24:00Z,00040200,01000000,0001.39,0000.62,0000.57,0000.25,0000.39,0000.14,0000.03,0000.13,0000.15,18.1,24.8,01.7,01.1,0683.7,31.1
2021-04-28T03:25:00Z,00040200,01000000,0001.51,0001.01,0000.67,-000.17,0000.11,0000.57,0000.73,0000.26,0000.50,18.1,24.8,01.8,01.2,0683.7,31.1
2021-04-28T03:26:00Z,00040200,01000000,0001.29,0000.81,0000.72,0000.08,0000.34,0000.07,0000.10,0000.42,-000.17,18.1,24.8,01.7,01.1,0683.7,31.1
2021-04-28T03:27:00Z,00040200,01000000,0000.88,0000.99,0000.17,0000.57,0000.32,0000.02,0000.45,0000.45,0000.65,18.1,24.8,01.7,01.1,0683.7,31.1
2021-04-28T03:28:00Z,00040200,01000000,0000.66,0000.73,0000.23,-000.18,0000.02,-000.08,0000.27,0000.23,0000.01,18.1,24.8,01.7,01.1,0683.7,31.1
2021-04-28T03:29:00Z,00040200,01000000,0001.05,0000.97,0000.31,0000.24,0000.20,-000.01,0000.61,0000.30,0000.59,18.1,24.8,01.8,01.2,0683.6,31.1
2021-04-28T03:30:00Z,00040200,01000000,0000.81,0000.71,0000.63,-000.08,0000.31,0000.58,0000.01,0000.22,0000.01,18.1,24.8,01.8,01.2,0683.6,31.1
2021-04-28T03:31:00Z,00040200,01000000,0000.91,0000.91,0000.51,-000.10,0000.39,0000.10,0000.68,0000.38,0000.15,18.1,24.8,01.8,01.2,0683.6,31.1
2021-04-28T03:32:00Z,00040200,01000000,0001.58,0000.74,0000.25,0000.28,0000.25,0000.11,0000.08,0000.29,-000.02,18.1,24.8,01.8,01.2,0683.6,31.1
2021-04-28T03:33:00Z,00040200,01000000,0001.05,0000.64,0000.48,0000.38,0000.00,-000.14,-000.13,0000.30,0000.23,18.1,24.8,01.7,01.1,0683.6,31.1
2021-04-28T03:34:00Z,00040200,01000000,0001.58,0000.76,0000.44,0000.23,0000.03,0000.20,0000.51,-000.11,0000.12,18.1,24.8,01.7,01.1,0683.6,31.1
2021-04-28T03:35:00Z,00040200,01000000,0000.81,0000.85,0000.60,0000.26,-000.10,0000.07,0000.32,0000.33,0000.11,18.1,24.8,01.6,01.0,0683.6,31.1
2021-04-28T03:36:00Z,00040200,01000000,0001.35,0001.02,0000.54,0000.58,0000.26,0000.05,-000.30,0000.13,-000.05,18.1,24.8,01.5,01.0,0683.6,31.1
2021-04-28T03:37:00Z,00040200,01000000,0000.95,0000.96,0000.46,-000.05,0000.33,0000.33,0000.11,-000.10,0000.15,18.1,24.8,01.4,00.9,0683.6,31.1
2021-04-28T03:38:00Z,00040200,01000000,0000.91,0000.85,0000.36,0000.02,0000.17,0000.20,0000.22,-000.24,-000.11,18.1,24.8,01.4,00.9,0683.6,31.1
2021-04-28T03:39:00Z,00040200,01000000,0001.27,0000.66,0000.61,0000.21,0000.05,0000.21,0000.35,0000.69,0000.21,18.1,24.8,01.3,00.8,0683.6,31.1
2021-04-28T03:40:00Z,00040200,01000000,0001.28,0000.78,0000.37,0000.31,0000.21,-000.06,-000.06,-000.02,0000.27,18.1,24.8,01.2,00.8,0683.6,31.1
2021-04-28T03:41:00Z,00040200,01000000,0001.25,0000.83,0000.43,0000.05,-000.08,0000.14,-000.17,-000.35,-000.17,18.1,24.8,01.1,00.7,0683.6,31.2
2021-04-28T03:42:00Z,00040200,01000000,0000.77,0000.77,0000.21,-000.15,0000.11,-000.27,0000.77,0000.78,0000.32,18.1,24.8,01.1,00.8,0683.6,31.1
2021-04-28T03:43:00Z,00040200,01000000,0001.06,0000.69,0000.35,0000.11,0000.14,-000.06,0000.38,0000.42,0000.20,18.1,24.8,01.1,00.7,0683.6,31.1
2021-04-28T03:44:00Z,00040200,01000000,0000.89,0001.11,0000.45,0000.32,0000.31,0000.32,0000.45,0000.50,0000.39,18.1,24.8,01.2,00.8,0683.6,31.1
2021-04-28T03:45:00Z,00040200,01000000,0001.12,0000.58,0000.31,0000.29,0000.18,0000.03,0000.02,0000.00,-000.10,18.1,24.8,01.1,00.7,0683.6,31.1
2021-04-28T03:46:00Z,00040200,01000000,0001.35,0000.77,0000.29,-000.09,0000.27,0000.16,0000.77,0000.29,0000.54,18.1,24.8,01.2,00.8,0683.6,31.1
2021-04-28T03:47:00Z,00040200,01000000,0001.65,0000.88,0000.60,0000.65,0000.36,0000.06,0000.06,0000.32,0000.09,18.1,24.8,01.1,00.8,0683.6,31.1
2021-04-28T03:48:00Z,00040200,01000000,0001.02,0000.70,0000.46,0000.26,0000.27,0000.16,0000.01,0000.01,0000.09,18.1,24.8,01.1,00.7,0683.6,31.1
2021-04-28T03:49:00Z,00040200,01000000,0001.05,0000.89,0000.50,-000.39,-000.01,0000.44,0000.40,0000.43,0000.23,18.1,24.8,01.1,00.7,0683.6,31.1
2021-04-28T03:50:00Z,00040200,01000000,0001.66,0000.92,0000.45,0000.03,0000.23,0000.05,0000.58,0000.28,0000.45,18.1,24.8,01.1,00.7,0683.6,31.1
2021-04-28T03:51:00Z,00040200,01000000,0001.16,0000.95,0000.51,0000.04,0000.16,0000.32,0000.42,0000.43,0000.33,18.1,24.8,01.0,00.7,0683.6,31.1
2021-04-28T03:52:00Z,00040200,01000000,0001.59,0000.97,0000.48,-000.10,0000.29,0000.13,0000.37,0000.35,0000.23,18.1,24.8,01.1,00.7,0683.6,31.1
2021-04-28T03:53:00Z,00040200,01000000,0001.10,0000.51,0000.46,-000.16,0000.29,0000.37,0000.31,0000.15,0000.02,18.1,24.8,01.1,00.7,0683.6,31.1
2021-04-28T03:54:00Z,00040200,01000000,0001.83,0000.41,0000.42,-000.18,0000.17,0000.39,0000.39,0000.59,0000.20,18.1,24.8,01.1,00.8,0683.6,31.1
2021-04-28T03:55:00Z,00040200,01000000,0000.54,0000.39,0000.41,0000.12,0000.21,0000.09,0000.42,0000.02,0000.37,18.1,24.8,01.2,00.8,0683.6,31.1
2021-04-28T03:56:00Z,00040200,01000000,0001.36,0000.45,0000.60,-000.25,0000.30,0000.07,0000.29,0000.68,0000.29,18.1,24.8,01.2,00.8,0683.5,31.1
2021-04-28T03:57:00Z,00040200,41000000,,,,,,,0000.56,-000.02,0000.15,18.1,24.8,00.9,00.6,0683.5,31.1
2021-04-28T03:58:00Z,00040200,61000000,,,,,,,-000.26,0000.31,0000.13,17.9,24.9,01.2,00.8,0682.5,31.1
2021-04-28T03:59:00Z,00040200,21000000,,,,,,,-000.02,-000.32,-000.24,17.9,25.0,01.2,00.8,0682.5,31.1
